| time (UTC) | temp F | wind direction | speed MPH | gust MPH | rain 1hr in | rain 24hr in | rain mn in | humidity % | barometer mb |
| 20260508013008 | 66 | 98 | 0.0 | 2.0 | 0.00 | 0.04 | 0.03 | 53 | 1011.1 |
| 20260508011509 | 66 | 134 | 0.0 | 3.0 | 0.00 | 0.04 | 0.03 | 54 | 1011.1 |
| 20260508010010 | 66 | 147 | 1.0 | 5.0 | 0.00 | 0.04 | 0.03 | 50 | 1011.1 |
| 20260508004508 | 67 | 153 | 2.0 | 6.0 | 0.00 | 0.04 | 0.03 | 48 | 1011.2 |
| 20260508003007 | 67 | 198 | 2.0 | 7.0 | 0.00 | 0.04 | 0.03 | 48 | 1011.3 |
| 20260508001506 | 68 | 135 | 3.0 | 7.0 | 0.00 | 0.04 | 0.03 | 49 | 1011.4 |
| 20260508000006 | 68 | 213 | 2.0 | 9.0 | 0.00 | 0.04 | 0.03 | 47 | 1011.6 |
| 20260507234507 | 69 | 105 | 0.0 | 6.0 | 0.00 | 0.04 | 0.03 | 48 | 1011.6 |
| 20260507233008 | 68 | 105 | 1.0 | 10.0 | 0.00 | 0.04 | 0.03 | 50 | 1011.6 |
| 20260507231504 | 68 | 214 | 3.0 | 8.0 | 0.00 | 0.04 | 0.03 | 50 | 1011.7 |
| 20260507230005 | 67 | 109 | 0.0 | 4.0 | 0.00 | 0.04 | 0.03 | 51 | 1011.9 |
| 20260507224505 | 67 | 72 | 1.0 | 8.0 | 0.00 | 0.04 | 0.03 | 49 | 1012.1 |
| 20260507223002 | 66 | 199 | 3.0 | 6.0 | 0.00 | 0.04 | 0.03 | 54 | 1012.2 |
| 20260507221503 | 64 | 182 | 2.0 | 9.0 | 0.00 | 0.04 | 0.03 | 61 | 1012.3 |
| 20260507220002 | 63 | 171 | 3.0 | 8.0 | 0.00 | 0.04 | 0.03 | 64 | 1012.3 |
| 20260507214607 | 64 | 236 | 1.0 | 6.0 | 0.00 | 0.04 | 0.03 | 61 | 1012.5 |
| 20260507213103 | 65 | 276 | 0.0 | 6.0 | 0.00 | 0.04 | 0.03 | 54 | 1012.6 |
| 20260507211614 | 67 | 212 | 1.0 | 5.0 | 0.00 | 0.04 | 0.03 | 50 | 1012.6 |
| 20260507210106 | 68 | 210 | 3.0 | 5.0 | 0.00 | 0.04 | 0.03 | 49 | 1012.6 |
| 20260507204558 | 68 | 243 | 0.0 | 3.0 | 0.00 | 0.04 | 0.03 | 50 | 1012.6 |
| 20260507203106 | 67 | 251 | 1.0 | 7.0 | 0.00 | 0.04 | 0.03 | 53 | 1012.8 |
| 20260507201559 | 67 | 214 | 2.0 | 5.0 | 0.00 | 0.04 | 0.03 | 50 | 1012.9 |
| 20260507200105 | 65 | 98 | 1.0 | 6.0 | 0.00 | 0.04 | 0.03 | 56 | 1012.9 |
| 20260507194553 | 65 | 203 | 3.0 | 8.0 | 0.00 | 0.04 | 0.03 | 52 | 1013.0 |
| 20260507193048 | 64 | 250 | 1.0 | 5.0 | 0.00 | 0.04 | 0.03 | 54 | 1013.1 |
| 20260507191541 | 62 | 257 | 4.0 | 9.0 | 0.00 | 0.04 | 0.03 | 55 | 1013.3 |
| 20260507190040 | 61 | 233 | 4.0 | 8.0 | 0.00 | 0.04 | 0.03 | 57 | 1013.5 |
| 20260507184543 | 61 | 271 | 4.0 | 7.0 | 0.00 | 0.04 | 0.03 | 58 | 1013.5 |
| 20260507183037 | 61 | 267 | 3.0 | 9.0 | 0.00 | 0.04 | 0.03 | 60 | 1013.5 |
| 20260507181537 | 61 | 214 | 4.0 | 10.0 | 0.00 | 0.04 | 0.03 | 60 | 1013.4 |
| 20260507180039 | 61 | 199 | 0.0 | 4.0 | 0.00 | 0.04 | 0.03 | 66 | 1013.3 |
| 20260507174534 | 59 | 335 | 1.0 | 4.0 | 0.00 | 0.04 | 0.03 | 68 | 1013.4 |
| 20260507173032 | 58 | 46 | 0.0 | 3.0 | 0.00 | 0.04 | 0.03 | 75 | 1013.3 |
| 20260507171524 | 57 | 93 | 0.0 | 4.0 | 0.00 | 0.04 | 0.03 | 80 | 1013.5 |
| 20260507170120 | 55 | 141 | 0.0 | 2.0 | 0.00 | 0.04 | 0.03 | 85 | 1013.7 |
| 20260507164522 | 54 | 199 | 0.0 | 1.0 | 0.00 | 0.04 | 0.03 | 85 | 1013.9 |
| 20260507163017 | 53 | 13 | 0.0 | 0.0 | 0.00 | 0.04 | 0.03 | 86 | 1014.1 |
| 20260507161519 | 53 | 349 | 0.0 | 3.0 | 0.00 | 0.04 | 0.03 | 84 | 1014.2 |
| 20260507160016 | 54 | 277 | 0.0 | 2.0 | 0.00 | 0.04 | 0.03 | 85 | 1014.2 |
| 20260507154514 | 54 | 316 | 0.0 | 0.0 | 0.00 | 0.04 | 0.03 | 86 | 1013.9 |
| 20260507153011 | 53 | 243 | 0.0 | 0.0 | 0.00 | 0.04 | 0.03 | 87 | 1013.5 |
| 20260507151511 | 53 | 243 | 0.0 | 0.0 | 0.00 | 0.04 | 0.03 | 87 | 1013.5 |
| 20260507150020 | 52 | 242 | 0.0 | 0.0 | 0.00 | 0.04 | 0.03 | 88 | 1013.4 |
| 20260507144520 | 51 | 242 | 0.0 | 0.0 | 0.00 | 0.04 | 0.03 | 89 | 1013.3 |
| 20260507143006 | 51 | 247 | 0.0 | 1.0 | 0.00 | 0.04 | 0.03 | 90 | 1013.1 |
| 20260507141504 | 50 | 214 | 0.0 | 0.0 | 0.00 | 0.04 | 0.03 | 91 | 1012.9 |
| 20260507140005 | 50 | 243 | 0.0 | 0.0 | 0.00 | 0.04 | 0.03 | 91 | 1012.9 |
| 20260507134502 | 49 | 247 | 0.0 | 0.0 | 0.00 | 0.04 | 0.03 | 92 | 1012.8 |
| 20260507133134 | 49 | 247 | 0.0 | 0.0 | 0.00 | 0.04 | 0.03 | 92 | 1012.4 |
| 20260507131559 | 49 | 247 | 0.0 | 0.0 | 0.00 | 0.04 | 0.03 | 93 | 1012.3 |
| 20260507130109 | 48 | 247 | 0.0 | 0.0 | 0.00 | 0.04 | 0.03 | 93 | 1012.3 |
| 20260507124557 | 48 | 247 | 0.0 | 0.0 | 0.00 | 0.04 | 0.03 | 92 | 1012.1 |
| 20260507123056 | 49 | 255 | 0.0 | 0.0 | 0.00 | 0.04 | 0.03 | 91 | 1011.9 |
| 20260507121606 | 49 | 256 | 0.0 | 1.0 | 0.00 | 0.04 | 0.03 | 91 | 1011.9 |
| 20260507120059 | 49 | 227 | 0.0 | 2.0 | 0.00 | 0.04 | 0.03 | 90 | 1011.8 |
| 20260507114633 | 50 | 213 | 1.0 | 5.0 | 0.00 | 0.04 | 0.03 | 90 | 1011.5 |
| 20260507113049 | 50 | 198 | 2.0 | 4.0 | 0.00 | 0.04 | 0.03 | 89 | 1011.6 |
| 20260507111552 | 50 | 120 | 0.0 | 2.0 | 0.00 | 0.04 | 0.03 | 89 | 1011.5 |
| 20260507110048 | 50 | 219 | 1.0 | 12.0 | 0.00 | 0.04 | 0.03 | 89 | 1011.5 |
| 20260507104547 | 50 | 221 | 0.0 | 6.0 | 0.00 | 0.04 | 0.03 | 89 | 1011.4 |
| 20260507103046 | 50 | 133 | 1.0 | 3.0 | 0.00 | 0.04 | 0.03 | 91 | 1011.3 |
| 20260507101547 | 50 | 224 | 0.0 | 2.0 | 0.00 | 0.04 | 0.03 | 90 | 1011.1 |
| 20260507100044 | 50 | 141 | 0.0 | 4.0 | 0.00 | 0.04 | 0.03 | 91 | 1011.1 |
| 20260507093047 | 50 | 270 | 0.0 | 2.0 | 0.00 | 0.04 | 0.03 | 93 | 1011.9 |
| 20260507091544 | 50 | 104 | 1.0 | 4.0 | 0.01 | 0.04 | 0.03 | 93 | 1011.6 |
| 20260507091510 | 50 | 104 | 1.0 | 4.0 | 0.01 | 0.04 | 0.03 | 93 | 1011.6 |
| 20260507090038 | 50 | 37 | 0.0 | 1.0 | 0.02 | 0.04 | 0.03 | 92 | 1011.6 |
| 20260507090022 | 50 | 36 | 0.0 | 1.0 | 0.02 | 0.04 | 0.03 | 92 | 1011.5 |
| 20260507084608 | 50 | 6 | 0.0 | 2.0 | 0.02 | 0.04 | 0.03 | 92 | 1011.3 |
| 20260507083033 | 51 | 241 | 3.0 | 5.0 | 0.02 | 0.04 | 0.03 | 91 | 1010.9 |
| 20260507081529 | 51 | 136 | 2.0 | 3.0 | 0.01 | 0.03 | 0.02 | 91 | 1011.1 |
| 20260507080022 | 51 | 113 | 1.0 | 4.0 | 0.00 | 0.02 | 0.01 | 91 | 1011.6 |
| 20260507074515 | 51 | 249 | 0.0 | 1.0 | 0.01 | 0.02 | 0.01 | 91 | 1011.4 |
| 20260507073012 | 51 | 350 | 0.0 | 0.0 | 0.01 | 0.02 | 0.01 | 91 | 1011.4 |
| 20260507071510 | 51 | 262 | 1.0 | 2.0 | 0.01 | 0.02 | 0.01 | 90 | 1011.7 |
| 20260507070010 | 52 | 247 | 0.0 | 1.0 | 0.01 | 0.02 | 0.01 | 88 | 1011.4 |
| 20260507064502 | 52 | 139 | 0.0 | 1.0 | 0.00 | 0.01 | 0.00 | 85 | 1010.7 |
| 20260507063105 | 53 | 207 | 0.0 | 3.0 | 0.00 | 0.01 | 0.00 | 82 | 1010.5 |
| 20260507061554 | 53 | 135 | 0.0 | 1.0 | 0.01 | 0.01 | 0.00 | 80 | 1010.2 |
| 20260507060051 | 53 | 221 | 2.0 | 9.0 | 0.01 | 0.01 | 0.01 | 79 | 1009.9 |
| 20260507054552 | 53 | 128 | 3.0 | 6.0 | 0.01 | 0.01 | 0.01 | 80 | 1010.1 |
| 20260507053048 | 54 | 70 | 0.0 | 4.0 | 0.01 | 0.01 | 0.01 | 78 | 1011.1 |
| 20260507051647 | 58 | 27 | 2.0 | 10.0 | 0.00 | 0.00 | 0.00 | 64 | 1011.6 |
| 20260507050046 | 55 | 289 | 2.0 | 9.0 | 0.00 | 0.00 | 0.00 | 69 | 1010.9 |
| 20260507044545 | 53 | 242 | 0.0 | 0.0 | 0.00 | 0.00 | 0.00 | 77 | 1009.6 |
| 20260507043043 | 54 | 248 | 0.0 | 0.0 | 0.00 | 0.00 | 0.00 | 76 | 1009.6 |
| 20260507041542 | 54 | 248 | 0.0 | 0.0 | 0.00 | 0.00 | 0.00 | 74 | 1009.8 |
| 20260507040043 | 55 | 131 | 0.0 | 0.0 | 0.00 | 0.00 | 0.00 | 73 | 1009.7 |
| 20260507034540 | 56 | 131 | 0.0 | 0.0 | 0.00 | 0.00 | 0.00 | 72 | 1009.6 |
| 20260507033037 | 56 | 259 | 0.0 | 0.0 | 0.00 | 0.00 | 0.00 | 71 | 1009.6 |
| 20260507031535 | 58 | 257 | 0.0 | 0.0 | 0.00 | 0.00 | 0.00 | 66 | 1009.5 |
| 20260507030034 | 59 | 257 | 0.0 | 0.0 | 0.00 | 0.00 | 0.00 | 65 | 1009.4 |
| 20260507024532 | 60 | 250 | 0.0 | 0.0 | 0.00 | 0.00 | 0.00 | 61 | 1009.4 |
| 20260507023031 | 62 | 250 | 0.0 | 0.0 | 0.00 | 0.00 | 0.00 | 59 | 1009.5 |
| 20260507021533 | 62 | 162 | 0.0 | 2.0 | 0.00 | 0.00 | 0.00 | 56 | 1009.2 |
| 20260507020036 | 63 | 145 | 0.0 | 2.0 | 0.00 | 0.00 | 0.00 | 54 | 1009.3 |
| 20260507014531 | 64 | 30 | 0.0 | 0.0 | 0.00 | 0.00 | 0.00 | 53 | 1009.2 |